Flag for Canada Weather past 2 weeks in Lethbridge, Alberta, Canada

Now
57 °F

Clear.


Feels Like: 52 °F
Forecast: 52 / 71 °F
Wind: 26 mph from West

Location: Lethbridge

Current Time: Jul 25, 2014 at 6:18:40 AM

Latest Report: Jul 25, 2014 at 5:00 AM


Visibility: 9 mi

Pressure: 29.80 "Hg

Humidity: 51%

Dew point: 39 °F

Location of LethbridgeLocation

Historic Weather in Lethbridge — Graph

°F

Lethbridge temperature yesterday

Maximum temperature yesterday: 68 °F (at 11:00 AM)
Minimum temperature yesterday: 55 °F (at 2:00 AM)
Average temperature yesterday: 61 °F

Past Weeks' High & Low Weather Summary

 TemperatureHumidityPressure
High88 °F (Jul 17, 3:00 PM)100% (Jul 12, 3:00 AM)30.27 "Hg (Jul 12, 3:00 AM)
Low46 °F (Jul 22, 6:00 AM)30% (Jul 19, 3:00 PM)29.55 "Hg (Jul 17, 6:00 PM)
Average65 °F69%29.96 "Hg
* Reported Jul 10 5:00 AM — Jul 25 5:00 AM, Lethbridge, Weather by CustomWeather, © 2014

Note: Actual official high and low records may vary slightly from our data, if they occured in-between our weather recording intervals... More about our weather records

Advertising

Lethbridge weather history for previous 24 hours

 ConditionsComfort  
Time TempWeatherWind HumidityBarometerVisibility
5:00 AM
Jul 25
57 °FClear.26 mph51%29.80 "Hg9 mi
4:00 AM57 °FClear.18 mph55%29.81 "Hg9 mi
3:00 AM57 °FClear.25 mph55%29.80 "Hg9 mi
2:00 AM57 °FClear.18 mph55%29.82 "Hg9 mi
1:00 AM55 °FClear.18 mph59%29.83 "Hg9 mi
12:00 AM55 °FClear.23 mph55%29.82 "Hg9 mi
11:00 PM
Jul 24
57 °FPassing clouds.23 mph51%29.81 "Hg9 mi
10:00 PM55 °FPartly sunny.22 mph55%29.82 "Hg15 mi
9:00 PM57 °FPassing clouds.21 mph55%29.81 "Hg30 mi
8:00 PM61 °FPartly sunny.29 mph45%29.80 "Hg30 mi
7:00 PM63 °FPartly sunny.18 mph42%29.83 "Hg40 mi
6:00 PM64 °FPassing clouds.26 mph37%29.83 "Hg40 mi
5:00 PM64 °FScattered clouds.32 mph37%29.82 "Hg40 mi
4:00 PM66 °FBroken clouds.32 mph35%29.82 "Hg40 mi
3:00 PM64 °FBroken clouds.31 mph34%29.82 "Hg40 mi
2:00 PM66 °FPassing clouds.37 mph32%29.81 "Hg40 mi
1:00 PM63 °FPartly sunny.33 mph34%29.81 "Hg40 mi
12:00 PM64 °FPartly sunny.21 mph40%29.83 "Hg40 mi
11:00 AM68 °FPassing clouds.24 mph40%29.83 "Hg40 mi
10:00 AM66 °FPassing clouds.18 mph52%29.83 "Hg40 mi
9:00 AM63 °FPassing clouds.16 mph64%29.84 "Hg30 mi
8:00 AM59 °FScattered clouds.8 mph77%29.85 "Hg30 mi
7:00 AM57 °FScattered clouds.7 mph88%29.85 "Hg30 mi
6:00 AM55 °FPassing clouds.7 mph88%29.86 "Hg30 mi
Weather by CustomWeather, © 2014

See weather overviewHow to use our weather pages